Hourly Data Report for September 05, 2017

All times are specified in Local Standard Time (LST). Add 1 hour to adjust for Daylight Saving Time where and when it is observed.

SATURNA ISLAND CS
BRITISH COLUMBIA

48°47'02.067" N
123°02'41.082" W
24.40 m
1017101
71473
WEZ

Download Data

Hourly Data (September 2017)
Hourly Data Report for September 5, 2017
Temp Definition
°C
Dew Point Temp Definition
°C
Rel Hum Definition
%
Wind Dir Definition
10's deg

Wind Spd Definition
km/h
Visibility Definition
km
Stn Press Definition
kPa
Hmdx Definition


Wind Chill Definition


Weather Definition


TIME
00:00 18.1 11.6 66 22 7   100.94     LegendNANA
01:00 23.5 14.8 58 31 6   100.92 27   LegendNANA
02:00 23.1 14.8 60 29 3   100.93 27   LegendNANA
03:00 23.2 15.0 60 31 5   100.93 27   LegendNANA
04:00 22.7 15.1 62 29 4   100.93 27   LegendNANA
05:00 22.0 15.6 67 28 3   100.93 26   LegendNANA
06:00 21.9 16.0 69 30 4   100.98 27   LegendNANA
07:00 22.6 15.6 65 30 6   100.95 27   LegendNANA
08:00 22.3 15.8 66 28 4   100.97 27   LegendNANA
09:00 22.9 15.4 63 31 3   101.00 27   LegendNANA
10:00 23.5 14.4 57 31 5   100.98 27   LegendNANA
11:00 24.5 13.6 51 29 6   100.98 28   LegendNANA
12:00 24.1 14.2 54 31 3   101.02 28   LegendNANA
13:00 23.8 14.3 55   0   101.05 27   LegendNANA
14:00 23.2 14.1 57 30 7   101.01 27   LegendNANA
15:00 22.1 15.7 67 30 7   101.03 27   LegendNANA
16:00 22.4 15.4 65 30 6   100.91 27   LegendNANA
17:00 21.9 15.0 65 30 6   100.90 26   LegendNANA
18:00 21.5 13.1 59 29 3   100.89     LegendNANA
19:00 21.0 15.6 71 32 10   100.91 25   LegendNANA
20:00 21.9 14.6 63 26 1   100.91 26   LegendNANA
21:00 21.3 13.3 60 23 7   100.96     LegendNANA
22:00 21.5 13.3 59 22 11   100.96     LegendNANA
23:00 23.0 12.5 52 22 6   100.97 26   LegendNANA

Notes on Data Quality.

Legend

  • E = Estimated
  • M = Missing
  • NA = Not Available
  • ‡ = Partner data that is not subject to review by the National Climate Archives
Date modified: